| time (UTC) | temp C | wind direction | speed KPH | gust KPH | rain 1hr cm | rain 24hr cm | rain mn cm | humidity % | barometer mb |
| 20260905184233 | 15 | 65 | 1.6 | 4.8 | 0.00 | 0.20 | 0.03 | 87 | 1017.1 |
| 20260905183736 | 15 | 225 | 1.6 | 6.4 | 0.00 | 0.20 | 0.03 | 89 | 1017.1 |
| 20260905183731 | 15 | 275 | 1.6 | 6.4 | 0.00 | 0.20 | 0.03 | 89 | 1017.1 |
| 20260905183230 | 15 | 180 | 1.6 | 6.4 | 0.00 | 0.20 | 0.03 | 88 | 1017.1 |
| 20260905182230 | 15 | 44 | 1.6 | 6.4 | 0.00 | 0.20 | 0.03 | 90 | 1017.1 |
| 20260905181736 | 15 | 5 | 1.6 | 6.4 | 0.00 | 0.20 | 0.03 | 91 | 1017.1 |
| 20260905181730 | 15 | 148 | 0.0 | 3.2 | 0.00 | 0.20 | 0.03 | 91 | 1017.1 |
| 20260905181345 | 14 | 0 | 1.6 | 6.4 | 0.00 | 0.20 | 0.03 | 90 | 1017.2 |
| 20260905180842 | 14 | 9 | 1.6 | 4.8 | 0.00 | 0.20 | 0.03 | 90 | 1017.2 |
| 20260905180349 | 14 | 5 | 1.6 | 4.8 | 0.00 | 0.20 | 0.03 | 90 | 1017.2 |
| 20260905175231 | 14 | 25 | 1.6 | 8.0 | 0.00 | 0.20 | 0.03 | 90 | 1017.2 |
| 20260905174734 | 14 | 98 | 1.6 | 8.0 | 0.00 | 0.20 | 0.03 | 89 | 1017.1 |
| 20260905174728 | 14 | 150 | 1.6 | 8.0 | 0.00 | 0.20 | 0.03 | 89 | 1017.1 |
| 20260905173728 | 14 | 136 | 1.6 | 8.0 | 0.00 | 0.20 | 0.03 | 90 | 1017.0 |
| 20260905173228 | 15 | 181 | 1.6 | 14.5 | 0.00 | 0.20 | 0.03 | 90 | 1017.0 |
| 20260905172734 | 15 | 145 | 1.6 | 3.2 | 0.00 | 0.20 | 0.03 | 89 | 1017.0 |
| 20260905172730 | 15 | 143 | 1.6 | 14.5 | 0.00 | 0.20 | 0.03 | 90 | 1017.0 |
| 20260905171733 | 14 | 96 | 1.6 | 8.0 | 0.00 | 0.20 | 0.03 | 90 | 1017.0 |
| 20260905171729 | 14 | 150 | 1.6 | 6.4 | 0.00 | 0.20 | 0.03 | 90 | 1017.0 |
| 20260905171342 | 14 | 172 | 1.6 | 8.0 | 0.00 | 0.20 | 0.03 | 91 | 1017.0 |
| 20260905170841 | 14 | 128 | 1.6 | 8.0 | 0.00 | 0.20 | 0.03 | 92 | 1017.0 |
| 20260905170341 | 14 | 180 | 1.6 | 8.0 | 0.00 | 0.20 | 0.03 | 92 | 1016.9 |
| 20260905165229 | 14 | 169 | 1.6 | 6.4 | 0.00 | 0.20 | 0.03 | 91 | 1016.9 |
| 20260905164728 | 14 | 181 | 1.6 | 6.4 | 0.00 | 0.20 | 0.03 | 92 | 1017.0 |
| 20260905164231 | 14 | 184 | 1.6 | 8.0 | 0.00 | 0.20 | 0.03 | 91 | 1017.0 |
| 20260905164226 | 14 | 172 | 1.6 | 8.0 | 0.00 | 0.20 | 0.03 | 91 | 1017.0 |
| 20260905163840 | 14 | 178 | 1.6 | 9.7 | 0.00 | 0.20 | 0.03 | 92 | 1016.9 |
| 20260905162724 | 14 | 172 | 1.6 | 9.7 | 0.00 | 0.20 | 0.03 | 91 | 1016.9 |
| 20260905162226 | 14 | 175 | 1.6 | 6.4 | 0.00 | 0.20 | 0.03 | 91 | 1016.9 |
| 20260905161724 | 14 | 147 | 1.6 | 4.8 | 0.00 | 0.20 | 0.03 | 90 | 1016.9 |
| 20260905161221 | 14 | 184 | 1.6 | 4.8 | 0.00 | 0.20 | 0.03 | 91 | 1016.9 |
| 20260905160724 | 14 | 0 | 0.0 | 4.8 | 0.00 | 0.20 | 0.03 | 91 | 1016.9 |
| 20260905160222 | 14 | 231 | 0.0 | 3.2 | 0.00 | 0.20 | 0.03 | 91 | 1016.9 |
| 20260905155727 | 14 | 304 | 0.0 | 0.0 | 0.00 | 0.20 | 0.03 | 92 | 1016.9 |
| 20260905155723 | 14 | 304 | 0.0 | 0.0 | 0.00 | 0.20 | 0.03 | 92 | 1016.9 |
| 20260905154723 | 14 | 304 | 0.0 | 0.0 | 0.00 | 0.20 | 0.03 | 94 | 1016.9 |
| 20260905154222 | 13 | 318 | 0.0 | 0.0 | 0.00 | 0.20 | 0.03 | 94 | 1016.9 |
| 20260905153721 | 13 | 318 | 0.0 | 0.0 | 0.00 | 0.20 | 0.03 | 93 | 1016.9 |
| 20260905153222 | 13 | 268 | 0.0 | 0.0 | 0.00 | 0.20 | 0.03 | 94 | 1016.9 |
| 20260905152721 | 13 | 268 | 0.0 | 0.0 | 0.00 | 0.20 | 0.03 | 94 | 1016.9 |
| 20260905152221 | 13 | 268 | 0.0 | 0.0 | 0.00 | 0.20 | 0.03 | 94 | 1016.9 |
| 20260905151721 | 13 | 268 | 0.0 | 0.0 | 0.00 | 0.20 | 0.03 | 95 | 1016.9 |
| 20260905151221 | 13 | 256 | 0.0 | 0.0 | 0.00 | 0.20 | 0.03 | 95 | 1016.9 |
| 20260905150725 | 13 | 248 | 0.0 | 0.0 | 0.00 | 0.20 | 0.03 | 95 | 1016.8 |
| 20260905150721 | 13 | 252 | 0.0 | 0.0 | 0.00 | 0.20 | 0.03 | 95 | 1016.9 |
| 20260905145723 | 13 | 248 | 0.0 | 0.0 | 0.00 | 0.20 | 0.03 | 94 | 1016.9 |
| 20260905145221 | 13 | 247 | 0.0 | 0.0 | 0.00 | 0.20 | 0.03 | 94 | 1016.8 |
| 20260905144725 | 13 | 321 | 0.0 | 0.0 | 0.00 | 0.20 | 0.03 | 95 | 1016.8 |
| 20260905144720 | 13 | 249 | 0.0 | 0.0 | 0.00 | 0.20 | 0.03 | 95 | 1016.8 |
| 20260905144333 | 13 | 321 | 0.0 | 0.0 | 0.00 | 0.20 | 0.03 | 95 | 1016.8 |
| 20260905143219 | 13 | 321 | 0.0 | 0.0 | 0.00 | 0.20 | 0.03 | 95 | 1016.8 |
| 20260905142719 | 13 | 317 | 0.0 | 0.0 | 0.00 | 0.20 | 0.03 | 95 | 1016.8 |
| 20260905142220 | 13 | 317 | 0.0 | 0.0 | 0.03 | 0.20 | 0.03 | 95 | 1016.8 |
| 20260905141721 | 13 | 318 | 0.0 | 0.0 | 0.03 | 0.20 | 0.03 | 95 | 1016.8 |
| 20260905141221 | 13 | 318 | 0.0 | 0.0 | 0.03 | 0.20 | 0.03 | 95 | 1016.7 |
| 20260905140720 | 13 | 317 | 0.0 | 0.0 | 0.03 | 0.20 | 0.03 | 95 | 1016.8 |
| 20260905140220 | 13 | 225 | 0.0 | 0.0 | 0.03 | 0.20 | 0.03 | 95 | 1016.7 |
| 20260905135720 | 13 | 217 | 0.0 | 0.0 | 0.03 | 0.20 | 0.03 | 95 | 1016.7 |
| 20260905135219 | 13 | 217 | 0.0 | 0.0 | 0.03 | 0.20 | 0.03 | 94 | 1016.6 |
| 20260905134719 | 13 | 217 | 0.0 | 0.0 | 0.03 | 0.20 | 0.03 | 94 | 1016.7 |
| 20260905134220 | 13 | 217 | 0.0 | 0.0 | 0.03 | 0.20 | 0.03 | 94 | 1016.7 |
| 20260905133719 | 13 | 221 | 0.0 | 0.0 | 0.03 | 0.20 | 0.03 | 94 | 1016.6 |
| 20260905133219 | 13 | 221 | 0.0 | 0.0 | 0.03 | 0.20 | 0.03 | 95 | 1016.6 |
| 20260905132725 | 13 | 221 | 0.0 | 0.0 | 0.00 | 0.18 | 0.00 | 94 | 1016.4 |
| 20260905132719 | 13 | 221 | 0.0 | 0.0 | 0.03 | 0.20 | 0.03 | 94 | 1016.4 |
| 20260905131723 | 13 | 173 | 0.0 | 0.0 | 0.00 | 0.18 | 0.00 | 95 | 1016.6 |
| 20260905131719 | 13 | 173 | 0.0 | 0.0 | 0.00 | 0.18 | 0.00 | 94 | 1016.6 |
| 20260905130720 | 13 | 173 | 0.0 | 0.0 | 0.00 | 0.18 | 0.00 | 95 | 1016.6 |
| 20260905130219 | 13 | 173 | 0.0 | 0.0 | 0.00 | 0.18 | 0.00 | 94 | 1016.6 |
| 20260905125720 | 13 | 173 | 0.0 | 0.0 | 0.00 | 0.18 | 0.00 | 94 | 1016.4 |
| 20260905125219 | 13 | 173 | 0.0 | 0.0 | 0.00 | 0.18 | 0.00 | 94 | 1016.4 |
| 20260905124721 | 12 | 173 | 0.0 | 0.0 | 0.00 | 0.20 | 0.00 | 94 | 1016.3 |
| 20260905124228 | 12 | 173 | 0.0 | 0.0 | 0.00 | 0.20 | 0.00 | 94 | 1016.3 |
| 20260905124224 | 12 | 173 | 0.0 | 0.0 | 0.00 | 0.20 | 0.00 | 94 | 1016.3 |
| 20260905123219 | 12 | 173 | 0.0 | 0.0 | 0.00 | 0.20 | 0.00 | 94 | 1016.3 |
| 20260905122720 | 12 | 173 | 0.0 | 0.0 | 0.00 | 0.20 | 0.00 | 94 | 1016.3 |
| 20260905122225 | 12 | 173 | 0.0 | 0.0 | 0.00 | 0.20 | 0.00 | 94 | 1016.2 |
| 20260905122219 | 12 | 173 | 0.0 | 0.0 | 0.00 | 0.20 | 0.00 | 94 | 1016.3 |
| 20260905121835 | 12 | 173 | 0.0 | 0.0 | 0.00 | 0.20 | 0.00 | 94 | 1016.1 |
| 20260905121720 | 12 | 173 | 0.0 | 0.0 | 0.00 | 0.20 | 0.00 | 94 | 1016.2 |
| 20260905120217 | 12 | 173 | 0.0 | 0.0 | 0.00 | 0.20 | 0.00 | 94 | 1016.1 |
| 20260905115717 | 12 | 173 | 0.0 | 0.0 | 0.00 | 0.23 | 0.00 | 94 | 1016.2 |
| 20260905115217 | 12 | 172 | 0.0 | 0.0 | 0.00 | 0.23 | 0.00 | 94 | 1016.2 |
| 20260905114717 | 12 | 172 | 0.0 | 0.0 | 0.00 | 0.23 | 0.00 | 94 | 1016.2 |
| 20260905114218 | 12 | 172 | 0.0 | 0.0 | 0.00 | 0.23 | 0.00 | 93 | 1016.1 |
| 20260905113718 | 12 | 172 | 0.0 | 3.2 | 0.00 | 0.23 | 0.00 | 94 | 1016.1 |
| 20260905113217 | 12 | 172 | 0.0 | 3.2 | 0.00 | 0.23 | 0.00 | 93 | 1016.1 |
| 20260905112717 | 13 | 172 | 0.0 | 3.2 | 0.00 | 0.23 | 0.00 | 93 | 1016.1 |
| 20260905112218 | 13 | 172 | 0.0 | 3.2 | 0.00 | 0.23 | 0.00 | 93 | 1016.1 |
| 20260905111717 | 13 | 172 | 0.0 | 0.0 | 0.00 | 0.23 | 0.00 | 94 | 1016.0 |
| 20260905111219 | 13 | 172 | 0.0 | 3.2 | 0.00 | 0.23 | 0.00 | 94 | 1016.0 |
| 20260905111215 | 13 | 172 | 0.0 | 3.2 | 0.00 | 0.23 | 0.00 | 94 | 1016.0 |
| 20260905110215 | 13 | 172 | 0.0 | 3.2 | 0.00 | 0.23 | 0.00 | 94 | 1016.0 |
| 20260905105715 | 13 | 172 | 0.0 | 3.2 | 0.00 | 0.23 | 0.00 | 94 | 1016.0 |
| 20260905105215 | 13 | 172 | 0.0 | 3.2 | 0.00 | 0.23 | 0.00 | 93 | 1016.1 |
| 20260905104723 | 13 | 172 | 0.0 | 3.2 | 0.00 | 0.23 | 0.00 | 94 | 1016.1 |
| 20260905104716 | 13 | 172 | 0.0 | 3.2 | 0.00 | 0.23 | 0.00 | 93 | 1016.1 |
| 20260905104215 | 13 | 172 | 0.0 | 3.2 | 0.00 | 0.23 | 0.00 | 94 | 1016.1 |
| 20260905103717 | 13 | 172 | 0.0 | 3.2 | 0.00 | 0.23 | 0.00 | 94 | 1016.1 |
| 20260905102715 | 13 | 165 | 0.0 | 3.2 | 0.00 | 0.23 | 0.00 | 94 | 1016.1 |
| 20260905102218 | 13 | 165 | 0.0 | 4.8 | 0.00 | 0.23 | 0.00 | 94 | 1016.1 |
| 20260905102214 | 13 | 165 | 0.0 | 4.8 | 0.00 | 0.23 | 0.00 | 94 | 1016.1 |
| 20260905101214 | 13 | 167 | 0.0 | 4.8 | 0.00 | 0.23 | 0.00 | 94 | 1016.1 |
| 20260905100714 | 13 | 171 | 0.0 | 4.8 | 0.00 | 0.23 | 0.00 | 94 | 1016.1 |
| 20260905100219 | 13 | 140 | 0.0 | 3.2 | 0.00 | 0.25 | 0.00 | 94 | 1016.1 |
| 20260905100213 | 13 | 140 | 0.0 | 3.2 | 0.00 | 0.23 | 0.00 | 94 | 1016.1 |
| 20260905095713 | 13 | 140 | 0.0 | 3.2 | 0.00 | 0.23 | 0.00 | 94 | 1016.2 |
| 20260905094713 | 13 | 140 | 0.0 | 3.2 | 0.00 | 0.25 | 0.00 | 94 | 1016.1 |
| 20260905094212 | 13 | 140 | 0.0 | 3.2 | 0.00 | 0.25 | 0.00 | 94 | 1016.1 |
| 20260905093714 | 13 | 140 | 0.0 | 3.2 | 0.00 | 0.25 | 0.00 | 94 | 1016.1 |
| 20260905093217 | 13 | 140 | 0.0 | 3.2 | 0.00 | 0.25 | 0.00 | 94 | 1016.0 |
| 20260905093211 | 13 | 140 | 0.0 | 3.2 | 0.00 | 0.25 | 0.00 | 94 | 1016.0 |
| 20260905092216 | 13 | 140 | 0.0 | 3.2 | 0.00 | 0.25 | 0.00 | 94 | 1015.9 |
| 20260905092212 | 13 | 140 | 0.0 | 3.2 | 0.00 | 0.25 | 0.00 | 94 | 1016.0 |
| 20260905091217 | 13 | 171 | 0.0 | 3.2 | 0.00 | 0.28 | 0.00 | 94 | 1015.8 |
| 20260905091212 | 13 | 140 | 0.0 | 3.2 | 0.00 | 0.25 | 0.00 | 94 | 1015.9 |
| 20260905090711 | 13 | 171 | 0.0 | 3.2 | 0.00 | 0.25 | 0.00 | 94 | 1015.9 |
| 20260905085711 | 13 | 146 | 0.0 | 3.2 | 0.00 | 0.28 | 0.00 | 94 | 1015.9 |
| 20260905085212 | 13 | 145 | 0.0 | 3.2 | 0.00 | 0.30 | 0.00 | 94 | 1015.9 |
| 20260905084716 | 13 | 145 | 0.0 | 3.2 | 0.00 | 0.33 | 0.00 | 93 | 1015.9 |
| 20260905084710 | 13 | 145 | 0.0 | 3.2 | 0.00 | 0.33 | 0.00 | 93 | 1015.9 |
| 20260905083715 | 13 | 145 | 0.0 | 3.2 | 0.00 | 0.41 | 0.00 | 93 | 1015.8 |
| 20260905083711 | 13 | 145 | 0.0 | 3.2 | 0.00 | 0.36 | 0.00 | 93 | 1015.9 |
| 20260905082709 | 13 | 145 | 0.0 | 1.6 | 0.00 | 0.43 | 0.00 | 93 | 1015.8 |
| 20260905082214 | 13 | 145 | 0.0 | 3.2 | 0.00 | 0.46 | 0.00 | 93 | 1015.8 |
| 20260905082210 | 13 | 145 | 0.0 | 3.2 | 0.00 | 0.43 | 0.00 | 93 | 1015.8 |
| 20260905081208 | 13 | 145 | 0.0 | 3.2 | 0.00 | 0.46 | 0.00 | 93 | 1015.8 |
| 20260905080710 | 13 | 145 | 0.0 | 3.2 | 0.00 | 0.46 | 0.00 | 93 | 1015.8 |
| 20260905080206 | 13 | 145 | 0.0 | 3.2 | 0.00 | 0.46 | 0.00 | 93 | 1015.7 |
| 20260905075705 | 13 | 145 | 0.0 | 3.2 | 0.00 | 0.46 | 0.00 | 93 | 1015.7 |
| 20260905075205 | 13 | 145 | 0.0 | 3.2 | 0.00 | 0.46 | 0.00 | 93 | 1015.6 |
| 20260905074705 | 13 | 115 | 0.0 | 3.2 | 0.00 | 0.46 | 0.00 | 93 | 1015.6 |
| 20260905074204 | 13 | 115 | 0.0 | 3.2 | 0.00 | 0.46 | 0.00 | 93 | 1015.5 |
| 20260905073704 | 13 | 115 | 0.0 | 3.2 | 0.00 | 0.46 | 0.00 | 93 | 1015.6 |
| 20260905073203 | 13 | 121 | 0.0 | 3.2 | 0.00 | 0.46 | 0.00 | 93 | 1015.5 |
| 20260905072702 | 13 | 121 | 0.0 | 3.2 | 0.00 | 0.46 | 0.00 | 93 | 1015.5 |
| 20260905072201 | 13 | 121 | 0.0 | 3.2 | 0.00 | 0.46 | 0.00 | 93 | 1015.5 |
| 20260905071701 | 13 | 126 | 0.0 | 3.2 | 0.00 | 0.46 | 0.00 | 93 | 1015.5 |
| 20260905071200 | 13 | 126 | 0.0 | 3.2 | 0.00 | 0.46 | 0.00 | 93 | 1015.4 |
| 20260905070702 | 13 | 126 | 0.0 | 3.2 | 0.00 | 0.46 | 0.00 | 93 | 1015.4 |
| 20260905070200 | 13 | 126 | 0.0 | 3.2 | 0.00 | 0.46 | 0.00 | 93 | 1015.4 |
| 20260905065700 | 13 | 38 | 0.0 | 3.2 | 0.00 | 0.46 | 0.46 | 93 | 1015.4 |
| 20260905065159 | 13 | 38 | 0.0 | 3.2 | 0.00 | 0.46 | 0.46 | 94 | 1015.4 |
| 20260905064657 | 13 | 39 | 0.0 | 3.2 | 0.00 | 0.46 | 0.46 | 94 | 1015.4 |
| 20260905064157 | 13 | 39 | 0.0 | 3.2 | 0.00 | 0.46 | 0.46 | 94 | 1015.4 |
| 20260905063657 | 13 | 42 | 0.0 | 3.2 | 0.00 | 0.46 | 0.46 | 94 | 1015.4 |
| 20260905063157 | 13 | 42 | 0.0 | 3.2 | 0.00 | 0.46 | 0.46 | 94 | 1015.3 |
| 20260905062655 | 13 | 42 | 0.0 | 3.2 | 0.00 | 0.46 | 0.46 | 94 | 1015.3 |
| 20260905062155 | 13 | 42 | 0.0 | 0.0 | 0.00 | 0.46 | 0.46 | 94 | 1015.4 |
| 20260905061656 | 13 | 42 | 0.0 | 3.2 | 0.00 | 0.46 | 0.46 | 94 | 1015.3 |
| 20260905061155 | 13 | 42 | 0.0 | 3.2 | 0.00 | 0.46 | 0.46 | 94 | 1015.3 |
| 20260905060655 | 13 | 42 | 0.0 | 0.0 | 0.00 | 0.46 | 0.46 | 94 | 1015.2 |
| 20260905060156 | 13 | 42 | 0.0 | 0.0 | 0.00 | 0.46 | 0.46 | 94 | 1015.3 |
| 20260905055656 | 12 | 42 | 0.0 | 3.2 | 0.00 | 0.46 | 0.46 | 94 | 1015.3 |
| 20260905055154 | 12 | 42 | 0.0 | 3.2 | 0.00 | 0.46 | 0.46 | 94 | 1015.3 |
| 20260905054653 | 12 | 42 | 0.0 | 0.0 | 0.00 | 0.46 | 0.46 | 93 | 1015.2 |
| 20260905054153 | 12 | 42 | 0.0 | 0.0 | 0.00 | 0.46 | 0.46 | 93 | 1015.2 |
| 20260905053656 | 12 | 42 | 0.0 | 0.0 | 0.00 | 0.46 | 0.46 | 92 | 1015.3 |
| 20260905053652 | 12 | 42 | 0.0 | 0.0 | 0.00 | 0.46 | 0.46 | 93 | 1015.3 |
| 20260905052657 | 13 | 42 | 0.0 | 3.2 | 0.00 | 0.46 | 0.46 | 92 | 1015.1 |
| 20260905052651 | 13 | 42 | 0.0 | 3.2 | 0.00 | 0.46 | 0.46 | 92 | 1015.1 |
| 20260905051651 | 13 | 59 | 0.0 | 3.2 | 0.00 | 0.46 | 0.46 | 92 | 1015.1 |
| 20260905051152 | 13 | 60 | 0.0 | 3.2 | 0.00 | 0.46 | 0.46 | 92 | 1015.2 |
| 20260905050656 | 13 | 59 | 0.0 | 1.6 | 0.00 | 0.46 | 0.46 | 92 | 1015.2 |
| 20260905050651 | 13 | 60 | 0.0 | 1.6 | 0.00 | 0.46 | 0.46 | 92 | 1015.1 |
| 20260905045652 | 13 | 60 | 0.0 | 1.6 | 0.00 | 0.46 | 0.46 | 92 | 1015.2 |
| 20260905045151 | 13 | 60 | 0.0 | 1.6 | 0.00 | 0.46 | 0.46 | 91 | 1015.2 |
| 20260905044648 | 13 | 60 | 0.0 | 1.6 | 0.00 | 0.46 | 0.46 | 91 | 1015.2 |
| 20260905044149 | 13 | 60 | 0.0 | 3.2 | 0.00 | 0.48 | 0.46 | 91 | 1015.1 |
| 20260905043649 | 13 | 60 | 0.0 | 3.2 | 0.00 | 0.48 | 0.46 | 91 | 1015.1 |
| 20260905043149 | 13 | 60 | 0.0 | 3.2 | 0.00 | 0.51 | 0.46 | 91 | 1015.0 |
| 20260905042649 | 13 | 60 | 0.0 | 3.2 | 0.00 | 0.51 | 0.46 | 91 | 1014.9 |
| 20260905042155 | 13 | 15 | 0.0 | 3.2 | 0.00 | 0.53 | 0.46 | 92 | 1014.9 |
| 20260905042149 | 13 | 40 | 0.0 | 3.2 | 0.00 | 0.53 | 0.46 | 91 | 1014.9 |
| 20260905041149 | 13 | 15 | 0.0 | 3.2 | 0.00 | 0.56 | 0.46 | 92 | 1014.8 |
| 20260905040649 | 13 | 15 | 0.0 | 0.0 | 0.00 | 0.56 | 0.46 | 92 | 1014.7 |
| 20260905040149 | 13 | 15 | 0.0 | 1.6 | 0.00 | 0.56 | 0.46 | 92 | 1014.7 |
| 20260905035647 | 13 | 15 | 0.0 | 1.6 | 0.00 | 0.56 | 0.46 | 92 | 1014.7 |
| 20260905035147 | 13 | 15 | 0.0 | 1.6 | 0.00 | 0.58 | 0.46 | 92 | 1014.6 |
| 20260905034646 | 13 | 15 | 0.0 | 3.2 | 0.00 | 0.58 | 0.46 | 92 | 1014.6 |
| 20260905034148 | 13 | 15 | 0.0 | 3.2 | 0.00 | 0.58 | 0.46 | 92 | 1014.6 |
| 20260905033651 | 13 | 15 | 0.0 | 3.2 | 0.00 | 0.58 | 0.46 | 92 | 1014.5 |
| 20260905033647 | 13 | 15 | 0.0 | 3.2 | 0.00 | 0.58 | 0.46 | 92 | 1014.6 |
| 20260905032647 | 13 | 15 | 0.0 | 3.2 | 0.00 | 0.61 | 0.46 | 92 | 1014.5 |
| 20260905032148 | 13 | 15 | 0.0 | 0.0 | 0.00 | 0.61 | 0.46 | 92 | 1014.4 |
| 20260905031648 | 14 | 15 | 0.0 | 0.0 | 0.00 | 0.64 | 0.46 | 92 | 1014.3 |
| 20260905031147 | 14 | 15 | 0.0 | 3.2 | 0.00 | 0.64 | 0.46 | 92 | 1014.2 |
| 20260905030646 | 14 | 15 | 0.0 | 3.2 | 0.00 | 0.64 | 0.46 | 92 | 1014.1 |
| 20260905030150 | 14 | 15 | 0.0 | 3.2 | 0.00 | 0.64 | 0.46 | 92 | 1014.2 |
| 20260905030145 | 14 | 15 | 0.0 | 3.2 | 0.00 | 0.64 | 0.46 | 92 | 1014.2 |
| 20260905025146 | 14 | 15 | 0.0 | 3.2 | 0.00 | 0.64 | 0.46 | 91 | 1014.1 |
| 20260905024644 | 14 | 15 | 0.0 | 0.0 | 0.00 | 0.64 | 0.46 | 91 | 1014.1 |
| 20260905024146 | 14 | 15 | 0.0 | 0.0 | 0.00 | 0.64 | 0.46 | 91 | 1014.1 |
| 20260905023644 | 14 | 15 | 0.0 | 0.0 | 0.00 | 0.64 | 0.46 | 91 | 1014.1 |
| 20260905023145 | 14 | 15 | 0.0 | 0.0 | 0.00 | 0.64 | 0.46 | 91 | 1014.0 |
| 20260905022650 | 14 | 15 | 0.0 | 3.2 | 0.00 | 0.64 | 0.46 | 91 | 1014.0 |
| 20260905022645 | 14 | 15 | 0.0 | 3.2 | 0.00 | 0.64 | 0.46 | 91 | 1014.1 |
| 20260905021647 | 14 | 15 | 0.0 | 3.2 | 0.00 | 0.64 | 0.46 | 90 | 1014.0 |
| 20260905021643 | 14 | 15 | 0.0 | 3.2 | 0.00 | 0.64 | 0.46 | 91 | 1014.0 |
| 20260905020644 | 14 | 15 | 0.0 | 3.2 | 0.00 | 0.64 | 0.46 | 90 | 1013.9 |
| 20260905020142 | 15 | 15 | 0.0 | 3.2 | 0.00 | 0.64 | 0.46 | 90 | 1013.9 |
| 20260905015644 | 15 | 15 | 0.0 | 3.2 | 0.00 | 0.64 | 0.46 | 90 | 1014.0 |
| 20260905015141 | 15 | 15 | 0.0 | 4.8 | 0.00 | 0.64 | 0.46 | 91 | 1014.0 |
| 20260905014641 | 15 | 15 | 0.0 | 4.8 | 0.00 | 0.64 | 0.46 | 91 | 1014.0 |
| 20260905014140 | 15 | 27 | 1.6 | 6.4 | 0.00 | 0.66 | 0.46 | 91 | 1014.0 |
| 20260905013641 | 15 | 23 | 1.6 | 6.4 | 0.00 | 0.66 | 0.46 | 91 | 1014.0 |
| 20260905013142 | 15 | 22 | 0.0 | 4.8 | 0.00 | 0.66 | 0.46 | 91 | 1013.9 |
| 20260905012638 | 15 | 189 | 0.0 | 4.8 | 0.00 | 0.69 | 0.46 | 91 | 1014.0 |
| 20260905012139 | 15 | 189 | 0.0 | 4.8 | 0.00 | 0.74 | 0.46 | 91 | 1013.9 |
| 20260905011638 | 15 | 65 | 0.0 | 3.2 | 0.00 | 0.76 | 0.46 | 91 | 1013.9 |
| 20260905011145 | 14 | 72 | 0.0 | 3.2 | 0.00 | 0.79 | 0.46 | 91 | 1013.8 |
| 20260905011139 | 14 | 65 | 0.0 | 3.2 | 0.00 | 0.79 | 0.46 | 91 | 1013.8 |
| 20260905010639 | 14 | 67 | 0.0 | 3.2 | 0.00 | 0.79 | 0.46 | 91 | 1013.8 |
| 20260905005639 | 14 | 9 | 0.0 | 3.2 | 0.00 | 0.79 | 0.46 | 91 | 1013.7 |
| 20260905005139 | 14 | 9 | 0.0 | 4.8 | 0.00 | 0.79 | 0.46 | 91 | 1013.7 |
| 20260905004643 | 14 | 267 | 1.6 | 3.2 | 0.00 | 0.79 | 0.46 | 90 | 1013.5 |
| 20260905004638 | 14 | 9 | 0.0 | 4.8 | 0.00 | 0.79 | 0.46 | 91 | 1013.5 |
| 20260905003639 | 14 | 283 | 1.6 | 8.0 | 0.03 | 0.79 | 0.46 | 90 | 1013.5 |
| 20260905003139 | 14 | 38 | 1.6 | 8.0 | 0.03 | 0.79 | 0.46 | 90 | 1013.5 |
| 20260905002638 | 15 | 73 | 1.6 | 12.9 | 0.03 | 0.79 | 0.46 | 90 | 1013.4 |
| 20260905002138 | 15 | 33 | 3.2 | 12.9 | 0.03 | 0.79 | 0.46 | 90 | 1013.3 |
| 20260905001639 | 15 | 15 | 1.6 | 9.7 | 0.03 | 0.79 | 0.46 | 90 | 1013.3 |
| 20260905001144 | 15 | 350 | 1.6 | 12.9 | 0.05 | 0.81 | 0.46 | 89 | 1013.2 |
| 20260905001139 | 15 | 9 | 1.6 | 9.7 | 0.03 | 0.79 | 0.46 | 89 | 1013.3 |
| 20260905000144 | 15 | 351 | 4.8 | 8.0 | 0.05 | 0.86 | 0.46 | 89 | 1012.9 |
| 20260905000138 | 15 | 128 | 3.2 | 12.9 | 0.05 | 0.84 | 0.46 | 89 | 1013.1 |
| 20260904235140 | 15 | 30 | 4.8 | 8.0 | 0.05 | 0.86 | 0.46 | 88 | 1013.0 |
| 20260904234639 | 15 | 28 | 4.8 | 8.0 | 0.05 | 0.89 | 0.46 | 89 | 1012.9 |
| 20260904234139 | 15 | 15 | 3.2 | 8.0 | 0.05 | 0.89 | 0.46 | 89 | 1012.9 |
| 20260904233639 | 15 | 15 | 1.6 | 6.4 | 0.03 | 0.89 | 0.43 | 90 | 1012.9 |
| 20260904233138 | 15 | 10 | 1.6 | 6.4 | 0.03 | 0.89 | 0.43 | 91 | 1012.9 |
| 20260904232638 | 15 | 43 | 1.6 | 6.4 | 0.03 | 0.89 | 0.43 | 89 | 1012.9 |
| 20260904232144 | 16 | 17 | 0.0 | 4.8 | 0.03 | 0.89 | 0.43 | 88 | 1013.0 |
| 20260904232138 | 16 | 20 | 1.6 | 6.4 | 0.03 | 0.89 | 0.43 | 89 | 1013.0 |
| 20260904231753 | 16 | 57 | 0.0 | 3.2 | 0.03 | 0.89 | 0.43 | 87 | 1013.0 |
| 20260904230640 | 16 | 63 | 1.6 | 4.8 | 0.00 | 0.86 | 0.41 | 85 | 1012.9 |
| 20260904230143 | 16 | 37 | 1.6 | 9.7 | 0.00 | 0.86 | 0.41 | 84 | 1012.9 |
| 20260904230139 | 16 | 76 | 1.6 | 9.7 | 0.00 | 0.86 | 0.41 | 85 | 1012.9 |
| 20260904225140 | 16 | 253 | 1.6 | 9.7 | 0.00 | 0.86 | 0.41 | 84 | 1012.8 |
| 20260904224640 | 16 | 5 | 3.2 | 12.9 | 0.00 | 0.86 | 0.41 | 84 | 1012.8 |
| 20260904224138 | 17 | 5 | 3.2 | 12.9 | 0.00 | 0.86 | 0.41 | 86 | 1012.8 |
| 20260904223637 | 17 | 23 | 1.6 | 9.7 | 0.00 | 0.86 | 0.41 | 83 | 1012.8 |
| 20260904223136 | 17 | 19 | 3.2 | 9.7 | 0.00 | 0.86 | 0.41 | 85 | 1012.8 |
| 20260904222637 | 17 | 9 | 3.2 | 8.0 | 0.00 | 0.86 | 0.41 | 85 | 1012.8 |
| 20260904222136 | 17 | 196 | 3.2 | 8.0 | 0.03 | 0.86 | 0.41 | 85 | 1012.8 |
| 20260904221640 | 17 | 13 | 1.6 | 8.0 | 0.05 | 0.86 | 0.41 | 87 | 1012.8 |
| 20260904221635 | 17 | 175 | 3.2 | 8.0 | 0.03 | 0.86 | 0.41 | 88 | 1012.7 |
| 20260904220635 | 16 | 339 | 1.6 | 6.4 | 0.05 | 0.86 | 0.41 | 89 | 1012.8 |
| 20260904220139 | 16 | 148 | 3.2 | 8.0 | 0.05 | 0.86 | 0.41 | 87 | 1012.8 |
| 20260904220135 | 16 | 17 | 3.2 | 6.4 | 0.05 | 0.86 | 0.41 | 87 | 1012.7 |
| 20260904215139 | 16 | 76 | 1.6 | 4.8 | 0.05 | 0.86 | 0.41 | 90 | 1012.9 |
| 20260904215135 | 16 | 24 | 1.6 | 8.0 | 0.05 | 0.86 | 0.41 | 90 | 1012.8 |
| 20260904214634 | 16 | 166 | 1.6 | 4.8 | 0.05 | 0.86 | 0.41 | 90 | 1012.9 |
| 20260904213633 | 15 | 37 | 1.6 | 6.4 | 0.05 | 0.86 | 0.41 | 91 | 1012.9 |
| 20260904213133 | 15 | 28 | 1.6 | 8.0 | 0.05 | 0.86 | 0.41 | 92 | 1012.8 |
| 20260904212631 | 15 | 10 | 1.6 | 8.0 | 0.05 | 0.86 | 0.41 | 91 | 1012.8 |
| 20260904212130 | 15 | 14 | 1.6 | 8.0 | 0.03 | 0.84 | 0.38 | 89 | 1012.9 |
| 20260904211130 | 15 | 74 | 1.6 | 6.4 | 0.00 | 0.81 | 0.36 | 89 | 1012.8 |
| 20260904210630 | 15 | 35 | 1.6 | 8.0 | 0.03 | 0.81 | 0.36 | 89 | 1012.8 |
| 20260904210130 | 15 | 36 | 1.6 | 8.0 | 0.03 | 0.81 | 0.36 | 88 | 1012.7 |
| 20260904205630 | 15 | 89 | 1.6 | 12.9 | 0.03 | 0.81 | 0.36 | 88 | 1012.8 |
| 20260904205128 | 15 | 175 | 1.6 | 12.9 | 0.05 | 0.81 | 0.36 | 88 | 1012.7 |
| 20260904204627 | 16 | 169 | 3.2 | 11.3 | 0.05 | 0.81 | 0.36 | 86 | 1012.7 |
| 20260904204127 | 16 | 187 | 3.2 | 12.9 | 0.05 | 0.81 | 0.36 | 85 | 1012.7 |
| 20260904203628 | 16 | 153 | 3.2 | 12.9 | 0.08 | 0.81 | 0.36 | 87 | 1012.7 |
| 20260904203124 | 16 | 180 | 3.2 | 8.0 | 0.08 | 0.81 | 0.36 | 92 | 1012.6 |
| 20260904202625 | 16 | 165 | 1.6 | 8.0 | 0.08 | 0.81 | 0.36 | 90 | 1012.6 |
| 20260904202125 | 15 | 121 | 0.0 | 6.4 | 0.08 | 0.81 | 0.36 | 89 | 1012.6 |
| 20260904201624 | 15 | 158 | 0.0 | 3.2 | 0.08 | 0.84 | 0.36 | 89 | 1012.6 |
| 20260904201124 | 15 | 172 | 0.0 | 3.2 | 0.08 | 0.84 | 0.36 | 89 | 1012.7 |
| 20260904200624 | 15 | 172 | 0.0 | 8.0 | 0.05 | 0.81 | 0.33 | 88 | 1012.8 |
| 20260904200124 | 15 | 173 | 1.6 | 8.0 | 0.05 | 0.81 | 0.33 | 88 | 1012.8 |
| 20260904195625 | 15 | 175 | 1.6 | 9.7 | 0.05 | 0.81 | 0.33 | 86 | 1012.7 |
| 20260904195125 | 15 | 107 | 1.6 | 9.7 | 0.03 | 0.79 | 0.30 | 84 | 1012.7 |
| 20260904194625 | 15 | 202 | 1.6 | 11.3 | 0.03 | 0.79 | 0.30 | 86 | 1012.7 |
| 20260904194124 | 16 | 167 | 1.6 | 11.3 | 0.03 | 0.79 | 0.30 | 84 | 1012.6 |
| 20260904193624 | 16 | 163 | 1.6 | 11.3 | 0.00 | 0.76 | 0.28 | 82 | 1012.7 |
| 20260904193124 | 16 | 190 | 1.6 | 11.3 | 0.00 | 0.76 | 0.28 | 82 | 1012.5 |
| 20260904192624 | 16 | 160 | 1.6 | 6.4 | 0.00 | 0.76 | 0.28 | 85 | 1012.6 |
| 20260904192124 | 16 | 130 | 1.6 | 6.4 | 0.00 | 0.79 | 0.28 | 82 | 1012.5 |
| 20260904191623 | 16 | 84 | 1.6 | 6.4 | 0.00 | 0.79 | 0.28 | 84 | 1012.6 |
| 20260904191128 | 15 | 171 | 1.6 | 6.4 | 0.00 | 0.81 | 0.28 | 89 | 1012.6 |
| 20260904191122 | 16 | 170 | 1.6 | 6.4 | 0.00 | 0.81 | 0.28 | 86 | 1012.6 |
| 20260904190122 | 15 | 334 | 1.6 | 4.8 | 0.00 | 0.81 | 0.28 | 87 | 1012.6 |
| 20260904185622 | 15 | 0 | 0.0 | 3.2 | 0.00 | 0.84 | 0.28 | 88 | 1012.7 |
| 20260904185128 | 15 | 5 | 0.0 | 4.8 | 0.00 | 0.86 | 0.28 | 89 | 1012.6 |
| 20260904185124 | 15 | 5 | 0.0 | 4.8 | 0.00 | 0.86 | 0.28 | 89 | 1012.6 |